SAA170 FACT-FAGG

Flight info

Callsign SAA170
Flight time 0h 49m
Altitude 21000
Route OKTED UQ12 XUGOL UQ56 AXEMU
Aircraft A20N/M-SDE2E3FGHIRWXY/LB1

Departure

Time 2026-04-25 11:05
Airport Cape Town International Airport (FACT)

Arrival

Time 2026-04-25 11:54
Airport George Airport (FAGG)
Time Latitude Longitude Altitude Speed Heading
2026-04-25 10:46 -33.97301 18.59917 155 ft 0 kts 254°
2026-04-25 10:56 -33.97298 18.59929 155 ft 1 kts 254°
2026-04-25 10:57 -33.97294 18.59943 155 ft 2 kts 254°
2026-04-25 10:57 -33.97290 18.59962 155 ft 2 kts 254°
2026-04-25 10:57 -33.97286 18.59981 155 ft 2 kts 235°
2026-04-25 10:57 -33.97272 18.59989 155 ft 2 kts 144°
2026-04-25 10:58 -33.97267 18.59983 155 ft 0 kts 121°
2026-04-25 11:00 -33.97268 18.59987 155 ft 1 kts 121°
2026-04-25 11:00 -33.97271 18.59993 155 ft 0 kts 122°
2026-04-25 11:00 -33.97274 18.59998 155 ft 2 kts 125°
2026-04-25 11:00 -33.97303 18.60015 155 ft 8 kts 160°
2026-04-25 11:01 -33.97382 18.60045 155 ft 16 kts 169°
2026-04-25 11:01 -33.97515 18.60095 154 ft 23 kts 156°
2026-04-25 11:01 -33.97671 18.60177 154 ft 26 kts 159°
2026-04-25 11:01 -33.97852 18.60246 154 ft 28 kts 161°
2026-04-25 11:02 -33.98037 18.60324 154 ft 30 kts 161°
2026-04-25 11:02 -33.98234 18.60419 154 ft 31 kts 162°
2026-04-25 11:02 -33.98443 18.60503 153 ft 32 kts 162°
2026-04-25 11:02 -33.98646 18.60588 153 ft 25 kts 159°
2026-04-25 11:03 -33.98783 18.60659 153 ft 14 kts 135°
2026-04-25 11:03 -33.98787 18.60730 153 ft 4 kts 83°
2026-04-25 11:03 -33.98786 18.60735 153 ft 0 kts 83°
2026-04-25 11:03 -33.98786 18.60736 153 ft 1 kts 83°
2026-04-25 11:04 -33.98779 18.60790 154 ft 14 kts 76°
2026-04-25 11:04 -33.98721 18.60863 154 ft 9 kts 336°
2026-04-25 11:04 -33.98713 18.60859 154 ft 0 kts 340°
2026-04-25 11:04 -33.98618 18.60837 152 ft 53 kts 345°
2026-04-25 11:05 -33.97636 18.60520 226 ft 151 kts 345°
2026-04-25 11:05 -33.96587 18.60175 1005 ft 163 kts 344°
2026-04-25 11:05 -33.95436 18.59817 1730 ft 180 kts 347°
2026-04-25 11:05 -33.94127 18.59722 2431 ft 198 kts
2026-04-25 11:06 -33.92722 18.60114 3056 ft 223 kts 15°
2026-04-25 11:06 -33.91225 18.60684 4008 ft 227 kts 14°
2026-04-25 11:06 -33.89819 18.61737 4732 ft 256 kts 41°
2026-04-25 11:06 -33.88894 18.63684 5494 ft 283 kts 70°
2026-04-25 11:07 -33.88783 18.66107 6442 ft 301 kts 96°
2026-04-25 11:07 -33.89324 18.68584 7430 ft 309 kts 105°
2026-04-25 11:07 -33.89965 18.71070 8419 ft 315 kts 103°
2026-04-25 11:07 -33.90515 18.73644 9417 ft 320 kts 99°
2026-04-25 11:08 -33.90958 18.76294 10348 ft 327 kts 97°
2026-04-25 11:08 -33.91342 18.79091 10835 ft 350 kts 96°
2026-04-25 11:08 -33.91711 18.82090 11257 ft 373 kts 95°
2026-04-25 11:08 -33.92085 18.85223 11647 ft 380 kts 96°
2026-04-25 11:09 -33.92463 18.88377 11991 ft 383 kts 96°
2026-04-25 11:09 -33.92846 18.91563 12371 ft 386 kts 96°
2026-04-25 11:09 -33.93230 18.94763 12730 ft 387 kts 96°
2026-04-25 11:09 -33.93618 18.97988 13118 ft 390 kts 96°
2026-04-25 11:10 -33.94007 19.01229 13500 ft 393 kts 96°
2026-04-25 11:10 -33.94266 19.03386 13752 ft 392 kts 96°
2026-04-25 11:10 -33.94786 19.07753 14186 ft 394 kts 96°
2026-04-25 11:10 -33.95177 19.11025 14538 ft 396 kts 96°
2026-04-25 11:11 -33.95568 19.14317 14884 ft 397 kts 96°
2026-04-25 11:11 -33.95958 19.17596 15241 ft 399 kts 96°
2026-04-25 11:11 -33.96351 19.20920 15592 ft 401 kts 96°
2026-04-25 11:11 -33.96744 19.24247 15966 ft 403 kts 96°
2026-04-25 11:12 -33.97137 19.27586 16325 ft 403 kts 96°
2026-04-25 11:12 -33.97534 19.30942 16698 ft 405 kts 96°
2026-04-25 11:12 -33.97931 19.34310 17076 ft 408 kts 96°
2026-04-25 11:12 -33.98330 19.37707 17462 ft 409 kts 96°
2026-04-25 11:13 -33.98727 19.41107 17850 ft 411 kts 96°
2026-04-25 11:13 -33.99122 19.44485 18223 ft 413 kts 96°
2026-04-25 11:13 -33.99523 19.47916 18560 ft 414 kts 96°
2026-04-25 11:13 -33.99925 19.51366 18903 ft 416 kts 96°
2026-04-25 11:14 -34.00326 19.54828 19251 ft 418 kts 96°
2026-04-25 11:14 -34.00729 19.58312 19604 ft 422 kts 96°
2026-04-25 11:14 -34.01133 19.61825 19960 ft 424 kts 96°
2026-04-25 11:14 -34.01539 19.65353 20320 ft 426 kts 96°
2026-04-25 11:15 -34.01946 19.68904 20675 ft 427 kts 96°
2026-04-25 11:15 -34.02353 19.72469 20883 ft 432 kts 96°
2026-04-25 11:15 -34.02763 19.76052 20867 ft 430 kts 96°
2026-04-25 11:15 -34.03172 19.79628 20874 ft 428 kts 96°
2026-04-25 11:16 -34.03980 19.86743 20867 ft 431 kts 96°
2026-04-25 11:16 -34.04383 19.90318 20867 ft 431 kts 96°
2026-04-25 11:16 -34.04786 19.93899 20865 ft 431 kts 96°
2026-04-25 11:17 -34.05189 19.97494 20865 ft 433 kts 96°
2026-04-25 11:17 -34.05590 20.01074 20870 ft 430 kts 96°
2026-04-25 11:17 -34.05990 20.04654 20866 ft 430 kts 96°
2026-04-25 11:17 -34.06390 20.08234 20866 ft 431 kts 96°
2026-04-25 11:18 -34.06788 20.11819 20868 ft 430 kts 96°
2026-04-25 11:18 -34.07184 20.15392 20866 ft 430 kts 96°
2026-04-25 11:18 -34.07579 20.18964 20867 ft 430 kts 96°
2026-04-25 11:18 -34.07973 20.22541 20867 ft 430 kts 96°
2026-04-25 11:19 -34.08366 20.26119 20876 ft 430 kts 96°
2026-04-25 11:19 -34.08625 20.28484 20876 ft 430 kts 96°
2026-04-25 11:19 -34.09144 20.33226 20868 ft 429 kts 96°
2026-04-25 11:19 -34.09533 20.36797 20870 ft 429 kts 96°
2026-04-25 11:20 -34.09797 20.39218 20867 ft 430 kts 96°
2026-04-25 11:20 -34.10311 20.43950 20873 ft 430 kts 95°
2026-04-25 11:20 -34.10572 20.46366 20876 ft 429 kts 95°
2026-04-25 11:20 -34.10958 20.49940 20876 ft 430 kts 95°
2026-04-25 11:21 -34.11342 20.53511 20868 ft 430 kts 95°
2026-04-25 11:21 -34.11721 20.57045 20876 ft 430 kts 95°
2026-04-25 11:21 -34.12104 20.60625 20866 ft 430 kts 95°
2026-04-25 11:21 -34.12486 20.64201 20873 ft 430 kts 95°
2026-04-25 11:22 -34.12867 20.67779 20867 ft 430 kts 95°
2026-04-25 11:22 -34.13248 20.71361 20876 ft 430 kts 95°
2026-04-25 11:22 -34.13626 20.74939 20873 ft 430 kts 95°
2026-04-25 11:22 -34.14005 20.78527 20872 ft 430 kts 95°
2026-04-25 11:23 -34.14381 20.82103 20873 ft 430 kts 95°
2026-04-25 11:23 -34.14757 20.85690 20717 ft 429 kts 95°
2026-04-25 11:23 -34.15131 20.89257 20472 ft 427 kts 95°
2026-04-25 11:23 -34.15502 20.92807 20227 ft 425 kts 95°
2026-04-25 11:24 -34.15870 20.96340 19982 ft 423 kts 95°
2026-04-25 11:24 -34.16231 20.99819 19752 ft 422 kts 95°
2026-04-25 11:24 -34.16593 21.03323 19514 ft 420 kts 95°
2026-04-25 11:24 -34.16922 21.06821 19277 ft 418 kts 92°
2026-04-25 11:25 -34.17159 21.10312 19044 ft 416 kts 92°
2026-04-25 11:25 -34.17389 21.13782 18807 ft 415 kts 92°
2026-04-25 11:25 -34.17617 21.17248 18578 ft 413 kts 92°
2026-04-25 11:25 -34.17846 21.20707 18341 ft 412 kts 92°
2026-04-25 11:26 -34.18073 21.24150 17929 ft 411 kts 92°
2026-04-25 11:26 -34.18295 21.27582 17403 ft 407 kts 92°
2026-04-25 11:26 -34.18511 21.30970 16892 ft 402 kts 92°
2026-04-25 11:26 -34.18721 21.34315 16390 ft 397 kts 92°
2026-04-25 11:27 -34.18923 21.37623 15895 ft 393 kts 92°
2026-04-25 11:27 -34.19119 21.40898 15403 ft 389 kts 92°
2026-04-25 11:27 -34.19312 21.44140 14921 ft 385 kts 92°
2026-04-25 11:27 -34.19437 21.46273 14608 ft 382 kts 92°
2026-04-25 11:28 -34.19675 21.50530 13993 ft 378 kts 92°
2026-04-25 11:28 -34.19847 21.53687 13507 ft 375 kts 91°
2026-04-25 11:28 -34.20018 21.56823 12990 ft 373 kts 92°
2026-04-25 11:28 -34.20191 21.59941 12479 ft 371 kts 91°
2026-04-25 11:29 -34.20369 21.63040 11981 ft 368 kts 91°
2026-04-25 11:29 -34.20550 21.66078 11497 ft 367 kts 91°
2026-04-25 11:29 -34.20737 21.69146 11008 ft 365 kts 91°
2026-04-25 11:29 -34.20934 21.72199 10507 ft 362 kts 92°
2026-04-25 11:30 -34.21128 21.75221 10054 ft 359 kts 91°
2026-04-25 11:30 -34.21331 21.78219 9576 ft 358 kts 91°
2026-04-25 11:30 -34.21538 21.81210 9061 ft 357 kts 91°
2026-04-25 11:30 -34.21745 21.84188 8584 ft 355 kts 91°
2026-04-25 11:31 -34.21940 21.87122 8315 ft 345 kts 91°
2026-04-25 11:31 -34.22130 21.89979 8060 ft 336 kts 91°
2026-04-25 11:31 -34.22245 21.92757 7812 ft 325 kts 85°
2026-04-25 11:31 -34.22107 21.95456 7568 ft 321 kts 82°
2026-04-25 11:32 -34.21925 21.98146 7326 ft 321 kts 82°
2026-04-25 11:32 -34.21740 22.00819 7095 ft 317 kts 81°
2026-04-25 11:32 -34.21556 22.03449 6849 ft 311 kts 81°
2026-04-25 11:32 -34.21369 22.06125 6610 ft 328 kts 82°
2026-04-25 11:33 -34.21169 22.08859 6377 ft 324 kts 81°
2026-04-25 11:33 -34.20972 22.11534 6128 ft 315 kts 81°
2026-04-25 11:33 -34.20778 22.14136 5877 ft 306 kts 81°
2026-04-25 11:33 -34.20587 22.16667 5626 ft 299 kts 81°
2026-04-25 11:34 -34.20397 22.19133 5382 ft 292 kts 81°
2026-04-25 11:34 -34.20202 22.21545 5136 ft 285 kts 81°
2026-04-25 11:34 -34.20016 22.23901 4892 ft 279 kts 81°
2026-04-25 11:34 -34.19825 22.26204 4652 ft 273 kts 81°
2026-04-25 11:35 -34.19628 22.28433 4400 ft 268 kts 81°
2026-04-25 11:35 -34.19431 22.30643 4230 ft 260 kts 81°
2026-04-25 11:35 -34.19248 22.32763 4148 ft 249 kts 81°
2026-04-25 11:35 -34.19074 22.34797 4071 ft 239 kts 81°
2026-04-25 11:36 -34.18684 22.36669 3992 ft 224 kts 54°
2026-04-25 11:36 -34.17682 22.38121 3995 ft 226 kts 41°
2026-04-25 11:36 -34.16597 22.39480 3992 ft 223 kts 41°
2026-04-25 11:36 -34.15521 22.40826 3994 ft 223 kts 41°
2026-04-25 11:37 -34.14434 22.42178 3995 ft 224 kts 41°
2026-04-25 11:37 -34.13355 22.43525 3993 ft 223 kts 41°
2026-04-25 11:37 -34.12274 22.44873 3996 ft 223 kts 41°
2026-04-25 11:37 -34.11192 22.46219 3997 ft 224 kts 41°
2026-04-25 11:38 -34.10102 22.47564 3993 ft 224 kts 41°
2026-04-25 11:38 -34.09030 22.48889 3993 ft 224 kts 41°
2026-04-25 11:38 -34.07946 22.50234 3953 ft 224 kts 41°
2026-04-25 11:38 -34.06857 22.51577 3934 ft 223 kts 41°
2026-04-25 11:39 -34.05770 22.52919 3928 ft 224 kts 39°
2026-04-25 11:39 -34.04474 22.53830 3924 ft 213 kts
2026-04-25 11:39 -34.03050 22.53701 3929 ft 205 kts 333°
2026-04-25 11:39 -34.01985 22.52614 3888 ft 201 kts 299°
2026-04-25 11:40 -34.01418 22.51065 3672 ft 205 kts 291°
2026-04-25 11:40 -34.00894 22.49424 3275 ft 215 kts 291°
2026-04-25 11:40 -34.00341 22.47682 2728 ft 227 kts 286°
2026-04-25 11:40 -34.00216 22.45810 2535 ft 221 kts 269°
2026-04-25 11:41 -34.00317 22.44001 2475 ft 212 kts 268°
2026-04-25 11:41 -34.00406 22.42294 2483 ft 197 kts 269°
2026-04-25 11:41 -34.00456 22.40700 2503 ft 184 kts 269°
2026-04-25 11:41 -34.00498 22.39205 2474 ft 179 kts 273°
2026-04-25 11:42 -34.00464 22.37470 2803 ft 237 kts 272°
2026-04-25 11:42 -34.00472 22.35397 2889 ft 251 kts 266°
2026-04-25 11:42 -34.00722 22.33367 3017 ft 241 kts 261°
2026-04-25 11:42 -34.01014 22.31360 3422 ft 244 kts 262°
2026-04-25 11:43 -34.01324 22.29356 3835 ft 246 kts 261°
2026-04-25 11:43 -34.01650 22.27302 3981 ft 250 kts 261°
2026-04-25 11:43 -34.02056 22.25325 3986 ft 240 kts 248°
2026-04-25 11:43 -34.03105 22.23817 3987 ft 236 kts 217°
2026-04-25 11:44 -34.04632 22.23214 3990 ft 231 kts 184°
2026-04-25 11:44 -34.06150 22.23666 4001 ft 227 kts 154°
2026-04-25 11:44 -34.07658 22.24696 4000 ft 270 kts 151°
2026-04-25 11:44 -34.09304 22.25859 3994 ft 276 kts 151°
2026-04-25 11:45 -34.10934 22.27015 3992 ft 274 kts 151°
2026-04-25 11:45 -34.12514 22.28293 3989 ft 275 kts 136°
2026-04-25 11:45 -34.13547 22.30226 3995 ft 277 kts 107°
2026-04-25 11:45 -34.13746 22.32515 3998 ft 275 kts 82°
2026-04-25 11:46 -34.13552 22.34814 3990 ft 275 kts 81°
2026-04-25 11:46 -34.13348 22.37107 3818 ft 275 kts 81°
2026-04-25 11:46 -34.13132 22.39413 3387 ft 278 kts 81°
2026-04-25 11:46 -34.12911 22.41737 3080 ft 275 kts 81°
2026-04-25 11:47 -34.12688 22.43989 2995 ft 269 kts 81°
2026-04-25 11:47 -34.12462 22.46243 2994 ft 271 kts 81°
2026-04-25 11:47 -34.12238 22.48445 2989 ft 257 kts 81°
2026-04-25 11:47 -34.12011 22.50521 2988 ft 242 kts 76°
2026-04-25 11:48 -34.11313 22.52237 2993 ft 220 kts 41°
2026-04-25 11:48 -34.10115 22.53389 2989 ft 220 kts 31°
2026-04-25 11:48 -34.08924 22.54419 2988 ft 207 kts 31°
2026-04-25 11:48 -34.07755 22.55433 2995 ft 208 kts 31°
2026-04-25 11:49 -34.06595 22.56440 2986 ft 202 kts 31°
2026-04-25 11:49 -34.05453 22.57431 2995 ft 202 kts 31°
2026-04-25 11:49 -34.04306 22.58416 2991 ft 202 kts 31°
2026-04-25 11:49 -34.03103 22.59255 2989 ft 196 kts
2026-04-25 11:50 -34.01794 22.59167 2989 ft 187 kts 331°
2026-04-25 11:50 -34.00922 22.58189 3014 ft 163 kts 296°
2026-04-25 11:50 -34.00499 22.56985 2990 ft 153 kts 291°
2026-04-25 11:50 -34.00170 22.55747 2986 ft 155 kts 282°
2026-04-25 11:51 -34.00058 22.54462 3017 ft 156 kts 273°
2026-04-25 11:51 -34.00070 22.53185 2941 ft 152 kts 270°
2026-04-25 11:51 -34.00107 22.51891 2756 ft 155 kts 270°
2026-04-25 11:51 -34.00146 22.50590 2558 ft 154 kts 269°
2026-04-25 11:52 -34.00188 22.49311 2376 ft 151 kts 271°
2026-04-25 11:52 -34.00226 22.48066 2162 ft 146 kts 270°
2026-04-25 11:52 -34.00278 22.46863 1909 ft 142 kts 269°
2026-04-25 11:52 -34.00327 22.45693 1688 ft 138 kts 266°
2026-04-25 11:53 -34.00376 22.44565 1513 ft 133 kts 265°
2026-04-25 11:53 -34.00399 22.43472 1379 ft 130 kts 266°
2026-04-25 11:53 -34.00413 22.42360 1214 ft 134 kts 266°
2026-04-25 11:53 -34.00443 22.41198 1138 ft 142 kts 266°
2026-04-25 11:54 -34.00489 22.40030 886 ft 137 kts 264°
2026-04-25 11:54 -34.00520 22.38884 713 ft 133 kts 264°
2026-04-25 11:54 -34.00570 22.37274 639 ft 36 kts 267°
2026-04-25 11:55 -34.00578 22.36981 635 ft 31 kts 269°
2026-04-25 11:55 -34.00570 22.36804 634 ft 3 kts 310°
2026-04-25 11:55 -34.00569 22.36804 634 ft 0 kts 316°
2026-04-25 11:55 -34.00563 22.36796 632 ft 0 kts 315°
2026-04-25 11:56 -34.00550 22.36787 633 ft 1 kts 340°
2026-04-25 11:56 -34.00517 22.36788 632 ft 16 kts 12°
2026-04-25 11:56 -34.00427 22.36885 634 ft 14 kts 46°